Location: Unspecified
(0.0000°N, 0.0000°E)
Time: 00:31:52
(UTC+00:00)

CORVUS BC2 - Pass Details

Date: 23 February 2026
Orbit: 540 x 560 km, 97.4° (Epoch: 7 March)

Event Time Altitude Azimuth Distance (km) Brightness Sun altitude
Rises 04:01:34 0° 157° (SSE) 2,745 ? -32.4°
Reaches altitude 10° 04:03:47 10° 150° (SSE) 1,846 ? -31.9°
Enters shadow 04:05:14 20° 139° (SE) 1,311 ? -31.5°
